Temp
10 10 10 10 9 9 9 9 9 9 9 9 9 9 9 9 8 9 9 17 18 21 20 19 18 19 19 19 20 18 17 15 19 20 22 23 25 26 27 27 29 29 28 28 27
9 9 9 9 9 9 9 9 9 9 9 9 9 9 8 8 9 8 20 18 16 18 16 16 17 18 17 18 18 17 15 17 19 21 22 24 26 24 26 25 29 29 28 28 27
9 9 9 9 9 9 9 9 8 8 9 9 8 9 9 9 9 14 18 16 17 14 17 18 19 18 18 17 18 18 19 19 21 22 22 23 23 25 26 25 29 29 29 26 24
8 8 8 8 9 8 8 8 8 8 8 8 8 9 9 9 16 20 19 17 19 14 16 17 17 17 16 17 17 18 19 21 21 22 23 23 24 25 25 25 27 27 28 28 24
7 7 7 7 8 8 8 8 8 8 8 8 8 9 9 9 10 20 20 17 16 14 14 16 16 16 16 16 18 18 19 20 21 22 21 21 22 23 24 24 25 25 27 27 27
7 7 7 7 7 7 7 7 7 7 7 8 8 9 9 8 13 16 15 15 16 14 15 15 16 16 17 18 18 19 20 21 20 20 21 22 23 22 24 24 25 25 26 25 25
6 6 6 6 6 7 7 7 7 7 7 7 8 8 9 10 14 15 15 13 15 16 15 17 18 19 17 19 18 20 19 20 20 20 20 22 22 22 23 24 25 24 25 26 24
6 6 6 6 6 6 7 7 9 7 7 7 8 8 9 12 13 11 12 12 16 16 16 18 18 18 18 18 19 20 19 19 20 21 21 22 22 24 23 23 24 25 24 25 24
6 6 6 6 6 6 7 8 11 11 7 7 8 9 10 12 12 13 12 12 14 15 16 18 18 16 18 17 16 17 17 18 20 20 22 21 23 24 24 22 23 23 23 24 24
6 6 6 6 6 6 6 7 12 9 9 8 10 9 10 14 14 15 16 13 16 17 16 17 16 15 16 16 16 17 17 20 20 22 21 22 20 23 23 23 22 23 22 23 23
6 6 6 6 7 6 5 6 8 9 9 10 12 12 13 17 17 19 17 14 15 17 16 17 16 15 16 17 18 20 19 20 20 22 22 21 21 22 23 22 22 22 21 22 22
6 6 6 6 6 7 6 7 7 9 7 12 12 13 14 14 15 17 18 16 15 16 17 16 16 17 18 18 18 19 18 19 21 23 21 21 21 22 22 23 22 23 22 21 22
6 7 6 6 6 6 5 6 10 8 7 12 13 14 14 15 14 14 16 17 17 16 17 17 19 19 19 19 18 19 19 19 20 23 22 23 20 21 23 22 23 22 23 23 22
6 7 6 5 7 7 5 9 9 8 8 12 15 16 16 16 16 17 17 16 17 17 18 18 20 20 19 19 20 18 20 21 21 20 18 21 18 20 21 22 23 23 21 19 19
6 7 6 5 5 6 8 8 7 8 9 16 17 20 16 16 18 19 19 16 16 18 19 18 19 19 19 20 21 20 22 21 21 20 21 20 19 20 21 24 24 20 18 17 18
6 7 7 6 6 6 7 6 7 9 10 15 18 17 16 17 18 19 18 18 17 17 20 19 21 20 20 21 22 22 21 21 20 17 17 19 19 19 21 22 23 20 18 17 16
6 8 7 6 6 8 7 6 9 9 15 15 15 15 15 15 16 16 15 14 14 16 16 18 19 20 21 20 21 21 19 16 16 15 18 19 18 20 21 22 22 18 17 17 16
7 8 8 8 8 7 6 7 9 12 13 15 15 14 14 14 15 15 14 14 14 13 13 16 16 19 21 20 19 19 18 15 16 16 18 19 19 20 21 22 21 19 17 17 16
6 6 8 8 10 7 7 7 9 11 14 13 13 13 13 15 14 14 15 14 15 14 13 15 17 20 21 22 21 19 19 19 18 18 17 18 20 21 19 18 18 17 17 16 16
4 5 7 8 8 7 7 9 11 12 13 12 11 13 12 13 12 13 14 15 15 15 14 13 15 21 21 22 22 21 20 19 18 17 17 18 19 20 18 17 17 17 16 15 15
4 3 9 9 8 6 8 8 8 10 10 10 11 11 11 12 12 12 13 15 15 14 14 14 14 18 20 20 20 20 20 20 19 16 16 17 17 17 16 15 16 16 15 15 15
5 2 9 9 6 6 8 7 7 10 12 12 12 11 11 11 11 11 13 14 16 15 14 14 13 14 17 20 21 20 20 20 17 16 16 16 16 15 14 14 15 15 14 14 15
4 5 8 8 5 7 8 9 9 9 10 11 10 10 12 11 11 12 12 15 14 14 13 13 14 14 15 17 18 19 18 18 17 16 17 16 15 16 15 14 15 15 15 15 15
4 5 4 3 6 6 6 8 8 11 10 11 12 12 11 12 11 11 12 13 13 14 14 13 12 14 15 16 17 18 20 19 18 16 16 16 16 15 15 14 14 15 14 14 14
4 5 5 3 5 5 7 7 8 8 8 8 11 10 8 11 12 11 12 14 13 14 13 13 13 14 16 19 19 20 20 21 18 19 19 16 16 16 16 16 15 15 14 14 14
3 4 4 4 5 6 6 8 7 8 8 9 9 9 10 10 10 10 11 11 14 14 13 12 13 15 15 19 20 18 18 21 20 18 19 17 16 17 16 16 16 16 15 13 13
5 5 4 5 5 6 7 7 7 7 8 10 9 9 9 10 10 11 10 10 10 11 13 12 12 15 15 18 17 15 17 18 17 17 18 17 16 16 16 16 15 15 15 13 12
Height
819 817 814 811 808 806 804 801 798 796 793 792 790 788 784 781 777 772 764 743 743 748 752 753 755 756 761 762 760 764 786 793 777 776 764 746 747 736 730 733 720 713 710 704 709
818 815 811 808 806 803 801 798 795 793 791 789 786 783 781 777 769 757 737 735 736 744 744 748 753 756 762 761 761 767 784 777 764 759 756 747 746 744 742 738 725 718 710 710 715
816 813 809 806 803 799 797 794 791 788 786 784 781 779 777 772 764 738 734 736 731 738 744 745 750 754 761 759 759 757 756 755 751 749 748 750 747 739 741 744 729 726 721 724 724
813 809 806 803 799 795 792 788 785 782 780 778 776 774 772 772 762 730 733 731 729 733 741 743 749 756 761 760 753 757 748 746 747 745 746 747 739 739 736 734 723 722 720 720 727
811 807 802 798 794 791 787 784 781 778 776 774 772 771 770 768 751 731 731 733 733 736 737 740 748 753 758 752 750 750 746 741 742 743 745 741 743 742 733 725 720 722 720 721 719
811 807 802 798 793 787 781 776 773 771 769 769 769 770 771 764 731 729 730 730 731 734 739 738 737 741 746 745 747 739 739 738 740 742 742 743 733 739 728 720 720 718 718 721 722
810 806 801 796 791 786 780 773 768 766 763 763 765 766 759 736 725 724 725 728 729 730 732 732 731 734 738 742 735 735 744 737 737 738 740 737 735 733 725 718 720 718 716 713 719
808 804 799 793 788 783 776 768 760 758 756 756 757 761 740 723 717 716 718 719 722 724 725 726 730 733 736 734 734 735 740 747 731 731 729 735 731 720 717 718 719 714 714 713 712
807 801 796 789 783 778 771 761 751 747 746 747 752 753 728 715 712 700 708 709 710 718 719 725 730 735 735 746 754 746 751 744 737 727 726 730 725 713 709 714 717 715 712 712 710
805 799 794 787 780 774 767 755 742 741 741 746 747 749 723 707 702 697 697 701 705 710 721 723 727 734 733 740 734 741 746 734 736 722 725 724 729 714 708 711 713 711 710 709 710
804 797 791 785 777 769 762 753 745 744 745 743 737 727 707 698 696 694 696 701 705 702 711 715 724 711 717 719 723 723 728 729 725 715 720 724 723 716 708 706 709 709 708 706 704
799 793 788 782 775 766 764 761 757 757 741 728 724 712 693 693 692 693 693 699 700 695 699 713 699 698 706 714 719 722 728 729 720 712 720 720 720 712 705 700 700 698 700 700 697
795 788 783 777 769 762 763 759 754 754 749 706 697 688 683 686 684 681 688 687 689 693 685 686 677 691 697 703 714 716 719 725 726 714 712 716 724 714 699 694 690 690 688 688 692
792 784 780 774 767 763 758 752 754 753 749 704 688 678 672 678 680 661 665 680 680 681 686 686 676 682 688 692 697 712 707 713 719 727 745 717 749 719 705 695 689 685 688 690 689
788 780 775 773 765 761 751 750 750 750 753 685 676 668 671 678 666 656 651 666 671 669 677 670 675 681 687 680 687 695 694 706 713 724 726 724 737 721 704 696 689 693 690 691 692
784 775 767 758 757 751 748 749 749 748 731 691 674 676 677 671 664 656 656 657 661 666 659 662 659 669 667 674 677 682 695 704 711 731 744 721 731 726 711 698 690 694 696 695 697
778 769 761 759 753 749 748 749 746 742 701 689 686 682 681 677 669 666 669 673 675 670 672 663 662 659 659 678 676 682 701 737 744 749 729 713 728 717 695 687 683 694 700 699 702
772 761 756 753 749 748 751 752 744 711 704 687 688 685 686 675 671 667 670 674 678 683 684 670 674 657 650 659 675 684 694 725 733 737 726 708 722 706 686 680 681 687 695 700 703
771 756 753 751 747 747 751 753 732 714 699 700 695 689 683 673 676 672 667 669 668 669 680 668 660 638 647 648 660 677 689 684 708 710 721 711 700 688 691 695 691 695 700 707 707
774 763 753 750 747 749 750 731 718 709 702 704 707 692 690 679 686 676 667 660 662 662 667 671 663 637 639 645 649 658 667 698 704 723 723 714 702 702 702 704 701 702 707 711 711
777 771 754 749 748 752 743 735 729 718 713 710 700 696 692 684 677 675 667 655 656 662 661 663 667 644 640 645 651 660 668 674 686 703 717 723 714 696 701 703 703 707 710 713 717
783 785 755 751 756 754 745 742 734 715 706 700 692 688 687 682 684 678 664 654 646 653 658 660 664 658 650 642 638 649 659 666 694 704 704 704 716 701 705 707 704 709 715 718 722
785 778 760 756 768 753 745 736 726 721 710 701 699 691 683 684 683 671 663 645 650 653 658 663 653 660 656 657 651 653 658 664 678 688 696 708 717 703 706 709 709 710 718 722 728
789 778 771 765 765 762 751 734 727 717 708 701 690 682 683 679 680 674 665 652 653 654 656 660 663 650 650 646 646 654 652 658 671 694 696 696 703 710 710 710 712 715 720 727 734
792 784 782 780 764 765 754 744 732 724 717 706 691 696 697 683 675 671 663 654 656 652 658 660 658 652 639 631 634 641 647 649 667 671 676 693 690 696 697 697 700 710 721 729 738
798 792 784 776 769 759 752 739 736 726 723 705 698 695 691 686 681 677 672 668 651 650 653 655 653 641 646 630 632 647 647 646 656 668 665 676 688 685 697 701 706 708 716 727 738
794 792 785 774 766 760 753 745 738 732 718 709 701 691 688 680 677 674 675 672 669 661 653 654 657 635 642 629 646 666 653 658 663 659 659 678 679 682 697 700 705 710 715 728 737
Wind_Speed
20 20 21 21 21 19 20 19 18 18 18 17 17 18 19 21 26 25 13 29 24 21 22 6 2 8 7 3 5 5 1 5 6 8 8 3 4 5 3 6 5 6 4 6 28
23 23 23 23 23 22 21 21 21 21 19 18 19 20 20 24 27 18 20 14 24 17 19 18 5 7 3 5 4 5 5 10 7 6 6 1 3 5 7 9 6 6 8 16 25
22 23 23 25 26 25 24 24 23 22 21 21 21 21 21 23 7 8 8 14 14 21 16 18 8 6 4 4 6 7 7 6 4 7 8 3 6 4 5 7 4 3 3 7 6
24 23 23 24 25 25 26 25 25 25 23 22 21 20 20 10 7 1 5 17 6 22 15 10 5 6 7 8 6 4 7 7 6 6 3 4 4 5 5 11 6 5 6 4 12
24 25 25 25 25 26 27 26 26 25 24 23 20 18 11 3 12 25 22 21 2 21 20 10 7 6 7 6 5 4 4 4 7 7 8 9 9 9 12 12 11 7 5 3 2
26 27 27 28 29 30 31 32 30 28 27 24 20 16 7 16 17 14 8 7 11 21 15 11 10 8 5 5 7 5 14 18 7 9 6 8 15 7 7 10 11 9 8 8 8
28 29 29 28 29 30 32 36 38 35 28 25 20 15 16 25 17 10 11 13 2 20 8 22 9 10 8 3 7 10 9 9 8 9 8 6 20 12 11 10 11 10 10 8 10
30 32 31 32 31 32 35 40 42 36 32 27 18 15 14 15 25 39 37 25 29 25 24 22 21 4 5 4 6 3 8 14 6 9 8 12 19 7 11 11 12 11 9 8 8
31 33 33 33 34 34 38 44 45 43 28 14 8 9 13 10 13 26 29 19 20 21 25 21 10 6 3 2 5 5 4 5 4 11 7 12 3 11 11 11 12 10 10 9 9
32 35 35 37 38 38 39 43 42 10 6 7 4 3 9 7 8 7 6 25 8 13 9 14 6 7 9 10 16 8 5 5 6 6 11 13 6 9 8 8 11 10 9 9 10
33 35 35 37 41 43 40 16 5 2 1 6 6 12 21 20 19 12 4 12 8 11 13 15 12 22 22 20 10 5 12 7 5 7 7 7 6 10 12 6 9 9 9 10 10
36 37 37 38 39 42 14 3 5 3 11 12 22 29 45 44 21 21 5 6 9 15 18 8 28 19 16 17 18 15 8 6 4 5 5 7 11 10 10 7 8 12 10 11 8
39 42 40 39 39 19 14 15 18 18 5 9 21 15 15 15 26 30 19 7 14 19 26 24 7 18 18 18 20 21 18 5 5 0 3 3 7 7 9 8 7 8 10 5 8
42 45 43 41 16 11 19 9 12 18 4 8 6 7 4 7 6 10 20 21 12 21 18 18 23 20 22 23 16 20 11 9 6 2 4 6 5 6 8 9 7 9 8 8 12
45 47 46 37 24 10 16 19 22 1 5 4 4 5 3 7 13 1 7 18 22 17 20 19 17 23 18 20 16 12 13 12 7 4 1 7 1 7 4 4 4 6 7 8 8
48 50 53 26 10 24 28 25 7 1 9 6 2 10 15 10 11 6 3 3 11 12 16 26 5 16 27 12 18 10 8 4 3 4 7 7 8 5 3 7 4 6 8 10 12
51 54 39 20 5 6 6 2 3 5 6 5 8 10 15 13 7 2 2 4 3 9 16 16 24 8 11 18 11 9 10 2 3 4 11 9 6 7 6 6 7 13 11 13 14
51 45 25 15 17 6 5 1 6 6 9 12 13 17 9 4 3 3 4 1 3 4 4 12 10 25 16 16 14 11 7 5 6 5 4 8 6 5 7 5 8 14 15 14 15
47 31 13 18 16 10 2 2 5 5 4 10 12 7 4 3 6 3 3 5 8 9 9 6 14 14 21 10 21 9 12 10 4 2 3 4 3 4 6 7 13 15 15 13 13
33 14 11 17 4 4 1 4 5 4 12 6 6 5 5 11 5 4 3 4 5 6 4 5 5 13 22 16 17 10 8 8 5 7 4 3 5 6 3 6 7 13 12 9 13
14 5 7 26 3 2 2 5 6 16 11 4 5 5 8 9 10 6 7 4 7 8 8 1 2 5 9 14 18 9 12 6 7 5 7 4 5 2 5 6 11 7 8 13 13
9 5 14 21 4 3 5 12 9 13 11 14 13 14 3 4 5 4 6 6 9 7 6 7 7 2 10 15 13 6 10 13 5 4 1 4 3 3 5 3 11 12 9 10 12
8 4 9 7 6 6 8 17 13 9 16 8 4 8 2 2 5 5 5 5 7 8 5 2 2 5 3 5 1 11 5 5 5 4 6 6 3 4 6 8 11 16 12 10 10
3 4 4 3 3 8 15 10 12 14 14 17 13 12 4 3 4 7 9 1 8 3 9 5 3 3 6 4 7 17 16 9 6 4 5 4 11 6 10 15 13 14 12 11 10
2 3 3 5 10 14 14 11 16 11 5 10 2 8 11 4 8 4 4 4 5 6 7 6 4 8 6 10 12 13 15 18 8 7 8 10 17 17 19 22 23 20 16 16 14
2 3 3 7 10 13 11 5 15 16 7 9 8 14 11 6 7 14 9 5 3 8 6 5 4 14 11 16 15 5 5 11 9 7 6 17 3 12 10 12 18 19 20 20 15
3 7 3 6 5 9 6 16 21 22 9 16 20 13 11 12 8 14 10 12 10 7 2 1 2 8 4 16 13 3 2 4 4 3 14 9 6 13 15 16 16 14 16 17 17
Wind_Direction
344 340 339 336 333 332 330 327 321 318 316 314 314 314 316 318 311 300 248 256 251 251 226 236 182 172 203 217 176 129 154 207 201 152 240 306 9 299 286 264 301 316 174 231 140
344 340 338 336 335 333 329 325 321 319 317 316 317 320 322 323 309 250 295 302 260 225 199 205 200 162 180 200 211 159 187 208 205 199 247 287 298 327 336 338 307 356 22 96 137
336 334 333 333 330 328 323 319 320 318 317 316 318 322 326 335 304 243 78 20 262 207 213 206 158 144 203 153 204 210 232 170 231 227 235 224 288 246 274 300 285 357 32 82 101
333 330 330 328 325 322 320 319 318 316 315 314 317 323 324 336 293 179 210 5 32 178 197 149 152 173 195 200 220 231 199 193 215 223 272 228 246 271 239 254 226 275 288 186 157
335 333 329 325 320 316 315 313 309 308 306 307 311 320 331 267 247 262 279 305 142 175 192 174 150 165 184 202 200 234 246 229 217 232 253 266 234 250 265 268 283 254 184 207 280
340 337 334 332 328 323 318 313 310 308 303 299 299 303 276 264 253 283 315 328 204 177 192 178 196 182 195 233 190 212 222 244 240 247 242 258 267 185 267 259 270 272 227 191 192
340 337 337 333 329 326 321 317 316 310 300 291 287 278 257 244 249 258 239 284 192 207 179 210 209 177 164 305 214 243 274 282 230 224 234 217 273 235 229 247 258 260 259 250 184
339 338 335 330 327 324 320 317 311 305 294 287 270 263 257 254 268 260 263 265 251 232 233 215 212 193 161 309 346 236 206 242 180 199 237 159 248 284 215 221 231 245 257 237 247
339 338 335 329 326 325 324 320 309 310 293 267 231 199 268 269 243 260 234 227 225 227 219 222 176 197 153 127 321 253 233 210 250 198 217 185 223 253 208 201 226 228 235 250 251
337 336 335 333 330 326 324 317 314 344 70 151 206 213 268 253 223 237 229 210 208 168 194 204 175 198 202 185 216 210 207 213 197 208 204 235 226 254 250 213 223 234 232 225 239
335 334 332 331 330 327 325 327 8 21 357 256 233 240 291 271 266 252 240 143 227 173 184 190 200 210 201 210 222 216 225 193 189 222 194 231 245 254 253 238 231 235 234 231 226
334 332 330 332 328 323 327 307 245 357 293 231 251 257 243 248 273 268 318 176 192 204 179 165 219 202 195 200 211 231 242 223 233 242 171 256 262 248 253 246 213 226 234 227 226
335 335 333 331 326 320 323 271 307 331 265 269 223 244 245 213 245 256 233 241 226 211 195 199 239 192 199 193 202 218 227 186 188 353 232 293 288 285 276 244 232 234 230 201 213
334 334 333 331 327 318 298 313 318 331 290 275 221 248 199 209 250 231 216 210 214 230 208 221 228 190 194 211 194 218 195 189 194 196 219 158 272 277 263 246 201 212 192 161 137
334 331 331 323 288 274 273 295 323 171 298 260 247 96 137 168 312 1 220 178 215 208 188 214 199 217 211 209 195 220 174 190 181 213 85 233 277 269 300 235 178 187 126 112 113
334 331 331 328 282 273 290 294 314 216 249 282 314 9 2 329 316 324 20 113 199 232 212 220 194 200 222 201 211 152 169 167 162 120 240 198 174 261 213 215 175 92 102 112 109
334 331 329 316 263 340 352 259 171 229 310 269 358 349 341 309 303 51 31 17 350 188 220 223 220 216 198 205 205 189 144 167 197 189 235 161 169 219 227 233 179 137 136 129 123
335 337 344 345 298 267 287 337 209 244 238 302 341 326 312 292 282 251 128 109 247 205 264 211 208 209 207 201 198 197 165 150 179 171 176 128 200 231 218 286 146 145 137 135 132
338 339 329 0 344 170 259 207 231 229 279 346 325 285 290 329 323 295 239 198 192 199 200 220 228 181 212 197 188 189 188 179 87 339 93 185 210 9 53 58 123 133 141 143 131
332 322 309 348 333 130 282 248 262 271 324 350 283 257 263 277 293 277 229 187 194 166 114 189 240 212 200 199 220 181 164 165 211 188 183 282 168 172 142 136 143 142 138 128 122
337 337 344 343 138 48 326 295 295 305 320 273 267 262 251 285 254 248 246 212 181 185 142 16 253 223 177 195 197 180 209 200 160 157 172 142 251 283 170 175 148 124 123 132 133
342 324 344 346 24 319 323 309 290 280 292 296 251 268 279 286 259 236 252 242 176 169 161 153 179 232 196 213 203 153 196 216 186 196 141 145 250 85 81 168 116 114 114 120 124
328 284 322 4 17 331 318 315 296 313 313 297 251 254 311 290 301 226 268 248 164 168 141 214 237 135 120 64 190 215 166 142 110 110 184 139 217 124 103 99 111 117 115 126 128
298 308 324 14 13 321 320 320 324 327 308 328 301 280 281 272 241 292 300 236 189 128 124 127 278 229 184 118 118 173 209 180 141 131 165 189 142 168 149 126 121 116 107 107 117
343 329 320 315 324 312 315 298 318 331 309 312 335 352 313 281 308 272 312 265 186 205 153 157 239 251 274 149 149 156 181 205 191 192 169 172 158 179 172 156 147 133 123 116 115
331 321 299 284 281 314 309 321 318 325 307 304 308 334 313 275 268 291 292 284 283 217 184 189 249 197 223 160 139 116 39 200 195 165 128 146 107 171 143 136 143 137 129 126 119
299 283 267 286 292 309 318 316 315 318 296 306 310 313 290 282 296 292 279 278 272 284 251 317 212 179 124 144 114 137 233 187 177 134 139 148 174 145 155 162 153 148 139 143 137